Re: [心情] 潛水撿到不鏽鋼吸管...

作者
看板 Womentalk
時間
留言 則留言,47人參與討論
推噓 42推 0噓 8→
加入最愛文章備份
joecho: 純噓淨灘 不從源頭解決只是無意義的活動
fakon: 淨灘真的很智障,一個禮拜又恢復原樣,根本做秀活動
淨灘怎麼會是無意義的活動... 當然 表面上看起來 淨灘減少海灘上的垃圾的速度是遠遠不及人類製造垃圾的速度的 但個人認為 淨灘這個活動最有意義的是 讓大家開始有環保意識 當你實際走在滿布玻璃碎片的沙灘上 當你發現好多寄居蟹拿起塑膠容器當自己的家 當你察覺你的衣服已被汗水浸溼 但是垃圾卻完全沒有減少時 你會開始瞭解到 原來我們輕輕鬆鬆製造出來的垃圾 竟然會造成那麼可怕的破壞力 而且竟然要花那麼多的人力、時間、成本去收拾善後(而且還很難恢復原狀) 淨灘這個活動 對我而言不僅僅是當下減少了海灘上的垃圾而已 同時也減少了未來可能產生的垃圾量 (我每次撿完垃圾那陣子都不敢買瓶裝飲料 用一次性用品都好有罪惡感XD) 其實 fakon兄臺也講到一個重點 很重要的是 不要讓淨灘淪為一種作秀活動 跟大家說實話 我自己也沒有參加過那種大型的淨灘活動 但每次我去海邊玩水浮淺衝浪 看海看夕陽看日出 我都會在我返回的路途中 順手撿起我途經區域的垃圾 並且也會請我的家人以及比較熟的朋友一起撿 然後再丟到岸上的垃圾桶或是垃圾集中區 (有時候我會故意提高音量說:欸經過有看到的垃圾順便撿一撿啊~) 透過這種微不足道的"微淨灘" 我想 或許有些看到的人會發現 原來淨灘沒有那麼遙遠 原來淨灘不是作秀活動 原來我也可以淨灘 至少 天真的我以為 每個去海邊玩水的人都能順手撿一些垃圾的話 垃圾便會少很多 我們的海灘會美麗非常多 建議關心環保或是喜歡自然環境的朋友們 有空可以去海邊晃晃 撿撿垃圾感受一下 相信你們也會找到 屬於每個人自己的淨灘的意義的 -- ※ 發信站: 批踢踢實業坊(ptt.cc), 來自: 210.70.86.21 ※ 文章網址: https://www.ptt.cc/bbs/WomenTalk/M.1533906190.A.F29.html
1Flikewind88: 推這篇 08/10 21:04
2Fpharaonis: 推,就是有人亂扔垃圾才需要淨灘啊 08/10 21:12
3Fabree726: 推!!! 08/10 21:15
4Fh7853837: 腿 08/10 21:16
5Fh7853837: 推 08/10 21:17
6Fddddd014: 那也只有會去淨灘的人才會發展出這種意識,但是他們本來 08/10 21:25
7Fddddd014: 就是喜愛環保會去淨灘的人啊 08/10 21:25
8FK30126: 海線人推 08/10 21:31
9Fminihou0218: 推善良 08/10 21:32
10Fhope836: 推 08/10 21:42
11Farlun: 心態的改變也很重要啊 08/10 21:42
12Fminifat: 大推環保意識 台灣的環保意識其實相當的高 08/10 21:43
13Feereer12325: 環工推 08/10 22:14
14Fbuchholiz: 推 08/10 22:28
15Fpowerki: 推這篇 一堆廢物只會嘴炮跟打擊做事的人 08/10 22:53
16Fganhua: 推 08/10 22:58
17Fmitsukiys: 推 08/10 23:03
18FlittleErin: 推!謝謝你 08/10 23:32
19Fshi0520: 推 不過根本解決之道是沒有人類 08/10 23:35
20Fyaliieah: 推 08/10 23:41
21Fsharkimage: 推 08/10 23:45
22FJ0825N: 推 08/10 23:51
23Fu123u1233: 推 08/11 00:03
24Fanans62: 推微影響,之前爬山會順便撿垃圾,現在團友會自己主動帶 08/11 00:30
25Fanans62: 袋子跟我一起撿 08/11 00:30
26Fevan5885: 腳不痠的嘴最酸 08/11 00:40
27Fbluewink11: 推,之前辦過相關活動,沒淨灘過的拜託真的去一回,一 08/11 00:49
28Fbluewink11: 定會有不同的體悟! 08/11 00:49
29Fq2520q: 那種人的邏輯本來就死掉了不用跟他認真 08/11 01:39
30Fasdf107362: 推 08/11 01:59
31Fmiya724: 推 08/11 02:46
32FIntroRomeo: 只能推了 有些人邏輯就是類似我洗澡還是會髒 幹嘛每天 08/11 05:46
33FIntroRomeo: 洗 我不要動不流汗就好了 08/11 05:46
34Fyachun28: 推 08/11 08:45
35Fprintemps: 推! 08/11 09:54
36Fjune56: 推這篇 08/11 10:11
37Fmaccc: 失敗主義者就是社會無法進步的主因 自身就是垃圾 08/11 10:40
38Febeta: 推你的理念!很不錯! 08/11 11:16
39Fshelley0522: 推 08/11 11:22
40FMilandess: 推 不知道那些不動手的在嘴砲什麼 08/11 15:12
41Fnininnini: 推 08/11 16:14
42Fcarpout: 推推 08/11 18:42
43Fchihuilo: 推你 08/11 19:03
44Fk1400: 08/11 22:00
45Fno1361: 正向 08/11 23:16
46Flkhtok: 推 08/11 23:29
47Fabcqq1717: 推 08/11 23:55
48Fcherryapril: 推這篇 08/12 07:24
49Fgeniusturtle: 推 08/12 12:41
50Fsodabubble: 推 08/13 14:54
看更多 rgtms 的文章,或回到 womentalk 看板

Re: [心情] 潛水撿到不鏽鋼吸管...  ⋅  有 0 則留言。

推薦文章

完整討論串

留言數 標題 作者 日期
166 [心情] 潛水撿到不鏽鋼吸管... dewode 2018-08-10T11:19:39
52 >> Re: [心情] 潛水撿到不鏽鋼吸管... rgtms 2018-08-10T21:03:07
10 Re: [心情] 潛水撿到不鏽鋼吸管... guemao 2018-08-10T21:31:15